Location: Chuathbaluk
(61.5726°N, 159.2454°W)
Time: 04:55:49
(UTC+00:00)

Transit 2A - Pass Details

Date: 01 December 2020
Orbit: 599 x 960 km, 66.7° (Epoch: 26 January)

Event Time Altitude Azimuth Distance (km) Brightness Sun altitude
Rises 07:46:40 0° 277° (W) 3,539 10.1 -41.8°
Reaches altitude 10° 07:49:22 10° 282° (WNW) 2,553 9.2 -42.1°
Enters shadow 07:51:04 19° 289° (WNW) 1,958 8.5 -42.2°
Maximum altitude 07:55:07 51° 358° (N) 1,041 - -42.6°
Drops below altitude 10° 08:00:20 10° 75° (ENE) 2,317 - -43.1°
Sets 08:02:41 0° 80° (E) 3,185 - -43.3°
